一网星座-0421星 (ONEWEB-0421 )

导读

ONEWEB-0421是英国OneWeb星座规划中的一颗低地球轨道通信卫星,于2021年12月27日发射入轨。该卫星所属的OneWeb星座旨在构建全球卫星通信网络,通过近地轨道卫星提供高速、低延迟的互联服务,覆盖航空海运、应急响应等领域,助力缩小全球数字鸿沟,为全球各地提供3G、LTE、5G及Wi-Fi连接支持。

基本信息
目录编号:
50496
目录名称:
ONEWEB-0421
国际标识:
2021-132AD
轨道中心:
EARTH
卫星名称:
一网星座-0421星
卫星全名:
一网星座-0421星 (ONEWEB-0421 )
卫星状态:
在轨 (已飞行1723 天)
发射日期:
2021-12-27 UTC
国别 :
英国 (GB)
星等 :
--
该卫星已列入 空间交会检测服务 Space Conjunction Data Service (SCDS) ,当前飞行风险评估等级: 无高风险
轨道信息
数据来源 国际轨道数据
星历时间: 2026-09-15T22:38:56+0800
8小时前
查看轨道信息
半长轴: 7567.876km
偏心率: 0.0002366
轨道倾角: 87.917°
近地点辐角 98.648°
升交点赤经 317.490°
平近点角 261.492°
近地点: 1187.948km
远地点: 1191.53km
周期: 109.200分钟
每日圈数: 13.186871
详细信息
平衡模式:
三轴稳定
覆盖范围:
全球
运营商:
一网卫星公司
运营商所在国:
英国
制造商(研发单位):
一网卫星公司
制造商所在国:
英国
使用方式:
暂无
卫星简介
OneWeb卫星网络由648颗重约125公斤的微型卫星组成,运行在1200公里的轨道上。 每颗卫星都能够提供至少每秒8千兆位的吞吐量,以使用其高吞吐量的Ku频段有效载荷为家庭和移动平台提供互联网接入。该卫星仍在工作。
2D轨道图
3D轨道图
轨道高度分析图
轨道倾角分析图
轨道综合分析图
查看轨道综合分析图
交会数据列表
事件ID 空间交会对象 最接近时刻(TCA) 交会距离 交会风险概率(CRP) 交会风险指数(CRI) 操作
CDM_260917-033604-708205-049623
2026-09-17T
03:36:53+0000
0.768 km
远距离
6.243202E-5 中风险 0.71
与全量物体交会距离演化趋势 订阅飞行安全评估服务
与全量物体交会风险概率演化趋势 订阅飞行安全评估服务